Погода в Пичаеве

Россия / Тамбовская область     51°47′25″N   41°13′06″E
темп.,
°C
ветер,
м/с
пор.,
м/с
влажн.,
%
обл.,
%
осадки,
мм/ч
давл.,
гПа
погр.,
м
9 мая, вс
вс900:00+12ююз3696100 0.4 1007122
03:00+11ю3497100 0.6 100683
06:00+10з5796100 3.3 1006372
09:00+7з6993100 4.1 1008572
12:00+6з5893100 2.6 1010576
15:00+6зсз71193100 3.1 1013690
18:00+5сз71291100 0.1 1015785
21:00+5сз61189100 0.1 1017826
10 мая, пн
пн1000:00+5ссз51090100 0.1 10171107
03:00+5ссз61092100 0.2 1018915
06:00+5ссз61297100 0.0 1018728
09:00+6с81392100 0.0 1018723
12:00+6с101894100 0.8 1016725
15:00+7ссв101996100 4.7 1016644
18:00+9ссв101894100 3.2 1015625
21:00+11ссв91793100 4.1 1016548
11 мая, вт
вт1100:00+11ссв91793100 0.4 1014492
03:00+12св8179297 0.4 1015624
06:00+8вюв61494100 1.2 1018686
09:00+10вюв7107396 2.3 10211065
12:00+13вюв8116058 0.0 10221644
15:00+13юв8126369 0.0 10231642
18:00+12ююв687459 0.1 1025987
21:00+8вюв1185100 0.1 102510
12 мая, ср
ср1200:00+8св3384100 0.0 102557
03:00+7св369093 0.0 1024105
06:00+8в49885 0.0 1024260
09:00+13в5674100 0.0 1023905
12:00+15в3472100 0.1 10221120
15:00+16в3467100 0.1 10211218
18:00+14вюв348532 0.1 1021290
21:00+12вюв359257 0.1 1021138
13 мая, чт
чт1300:00+11вюв239647 0.0 102147
03:00+10в22960 0.0 102123
06:00+12всв23955 0.0 102095
09:00+17в347680 0.0 1020545
12:00+21в3463100 0.0 10191273
15:00+20вюв3570100 0.0 1018594
18:00+20юв377593 0.3 1018256
21:00+17вюв368192 0.3 1018103